Starlink 31497

operational
NORAD ID: 60592 Int'l Des: 2024-150 Owner: SPXS Country: US Constellation: starlink
LEOCIRCULAR

About Starlink 31497

Description loading...

Live Position

Loading 3D Globe...

Upcoming Passes

Altitude History

Altitude vs Time

uPlot chart will show altitude changes over time

Two-Line Element Set

1 60592U 24150K 25259.64543481 -.00001323 00000-0 -32570-4 0 9994
2 60592 53.1617 35.4992 0001067 88.7208 271.3915 15.30181058 61395
Epoch: Sep 16, 2025 • Age: 33 hours

Current Status

Altitude 487.8 km
Velocity 7.62 km/s
Sub-Earth Point -36.99°S, 5.12°W
Launch Date Aug 20, 2024
Age 1 years
Type internet

Technical Details

Classification Payload
Mass 730.00 kg
Dry Mass 700.00 kg
Total Mass 730.00 kg
Length 0.30 m
Diameter 4.10 m
Span 29.00 m
Shape Box + pan
Manufacturer SPXS
Bus Type Starlink V2M
Phase Status In Orbit
Owner/State SPXS/US

Large Constellations

Loading constellations...